Weather History for KESF - September, 2012

Change the Weather History Date:

Monday, September 17, 2012

  Actual Average Record
Temperature  
Mean Temperature 76 °F -  
Max Temperature 82 °F 87 °F 99 °F (2004)
Min Temperature 71 °F 65 °F 48 °F (2000)
Cooling Degree Days 12    
Growing Degree Days 26 (Base 50)    
Moisture  
Dew Point 71 °F    
Average Humidity 89    
Maximum Humidity 94    
Minimum Humidity 67    
Precipitation  
Precipitation 0.51 in - - ()
Sea Level Pressure  
Sea Level Pressure 29.81 in    
Wind  
Wind Speed 1 mph (North)    
Max Wind Speed 7 mph    
Max Gust Speed -    
Visibility 7 miles    
Events Rain    
Averages and records for this station are not official NWS values.
T = Trace of Precipitation, MM = Missing Value Source: NWS Daily Summary

Daily Weather History Graph

Daily Weather History Graph

Search for Another Location

Airport or City:

Trip Planner

Search our weather history database for the weather conditions in past years. The results will help you decide how hot, cold, wet, or windy it might be!

Date:

Astronomy

Sep. 17, 2012 Rise Set
Actual Time 6:54 AM CDT 7:11 PM CDT
Civil Twilight 6:30 AM CDT 7:35 PM CDT
Nautical Twilight 6:02 AM CDT 8:04 PM CDT
Astronomical Twilight 5:33 AM CDT 8:32 PM CDT
Moon 8:33 AM CDT (9/17) 8:06 PM CDT (9/17)
Length of Visible Light 13h 05m
Length of Day
12h 16m
Waxing Crescent, 3% of the Moon is Illuminated
Sep 17
Waxing Crescent
Sep 22
First Quarter
Sep 29
Full
Oct 8
Last Quarter
Oct 15
New

Hourly Weather History & Observations

Time (CDT) Temp. Heat Index Dew Point Humidity Pressure Visibility Wind Dir Wind Speed Gust Speed Precip Events Conditions
12:53 AM 75.0 °F - 70.0 °F 84% 29.91 in 9.0 mi Calm Calm - N/A   Partly Cloudy
1:53 AM 73.9 °F - 70.0 °F 87% 29.91 in 8.0 mi Calm Calm - 0.00 in   Mostly Cloudy
2:53 AM 73.9 °F - 70.0 °F 87% 29.88 in 8.0 mi NE 4.6 mph - N/A   Mostly Cloudy
3:53 AM 73.0 °F - 70.0 °F 90% 29.86 in 7.0 mi Calm Calm - 0.00 in   Scattered Clouds
4:53 AM 73.0 °F - 70.0 °F 90% 29.85 in 5.0 mi Calm Calm - 0.00 in Rain Light Rain
5:37 AM 73.4 °F - 71.6 °F 94% 29.86 in 2.0 mi Calm Calm - 0.09 in Rain Rain
5:53 AM 73.0 °F - 71.1 °F 93% 29.86 in 3.0 mi Calm Calm - 0.12 in Rain Rain
6:02 AM 73.4 °F - 69.8 °F 88% 29.86 in 2.0 mi Calm Calm - 0.03 in Rain Heavy Rain
6:21 AM 73.4 °F - 71.6 °F 94% 29.86 in 3.0 mi Calm Calm - 0.08 in Rain Rain
6:35 AM 73.4 °F - 71.6 °F 94% 29.86 in 2.0 mi Calm Calm - 0.12 in Rain Rain
6:48 AM 73.4 °F - 69.8 °F 88% 29.86 in 3.0 mi Calm Calm - 0.14 in Rain Light Rain
6:53 AM 73.4 °F - 71.6 °F 94% 29.86 in 4.0 mi ENE 3.5 mph - N/A Rain Light Rain
7:33 AM 73.4 °F - 71.6 °F 94% 29.86 in 2.5 mi Calm Calm - 0.02 in Rain Light Rain
7:53 AM 73.0 °F - 71.1 °F 93% 29.86 in 2.5 mi Calm Calm - 0.03 in Rain Light Rain
8:01 AM 73.4 °F - 71.6 °F 94% 29.86 in 3.0 mi Calm Calm - 0.00 in Rain Light Rain
8:11 AM 73.4 °F - 71.6 °F 94% 29.86 in 2.5 mi ESE 3.5 mph - 0.00 in Rain Light Rain
8:15 AM 73.4 °F - 71.6 °F 94% 29.87 in 1.5 mi SE 3.5 mph - 0.05 in Rain Rain
8:29 AM 73.4 °F - 71.6 °F 94% 29.85 in 2.0 mi NNW 3.5 mph - N/A Rain Light Rain
8:35 AM 73.4 °F - 71.6 °F 94% 29.86 in 3.0 mi North 3.5 mph - 0.11 in Rain Rain
8:42 AM 73.4 °F - 71.6 °F 94% 29.85 in 3.0 mi Calm Calm - 0.12 in Rain Rain
8:51 AM 73.4 °F - 71.6 °F 94% 29.85 in 4.0 mi Calm Calm - 0.13 in Rain Light Rain
8:53 AM 73.4 °F - 71.6 °F 94% 29.85 in 4.0 mi Calm Calm - N/A Rain Light Rain
9:01 AM 73.4 °F - 71.6 °F 94% 29.86 in 2.5 mi Calm Calm - N/A Rain Rain
9:06 AM 73.4 °F - 71.6 °F 94% 29.86 in 1.8 mi SSE 3.5 mph - 0.05 in Rain Heavy Rain
9:20 AM 73.4 °F - 71.6 °F 94% 29.86 in 2.5 mi Calm Calm - 0.08 in Rain Rain
9:28 AM 73.4 °F - 69.8 °F 88% 29.86 in 5.0 mi Calm Calm - 0.09 in Rain Light Rain
9:53 AM 73.0 °F - 70.0 °F 90% 29.85 in 6.0 mi Calm Calm - 0.11 in Rain Light Rain
10:30 AM 73.4 °F - 71.6 °F 94% 29.85 in 4.0 mi Calm Calm - 0.03 in Rain Rain
10:45 AM 73.4 °F - 71.6 °F 94% 29.85 in 5.0 mi Calm Calm - 0.04 in Rain Light Rain
10:53 AM 73.9 °F - 71.1 °F 91% 29.84 in 5.0 mi Calm Calm - 0.05 in Rain Light Rain
11:53 AM 75.0 °F - 72.0 °F 90% 29.83 in 10.0 mi Calm Calm - 0.02 in Rain Light Rain
12:11 PM 75.2 °F - 71.6 °F 89% 29.83 in 10.0 mi Calm Calm - 0.00 in Rain Light Rain
12:30 PM 75.2 °F - 69.8 °F 83% 29.82 in 10.0 mi Calm Calm - 0.00 in Rain Light Rain
12:39 PM 75.2 °F - 71.6 °F 89% 29.82 in 10.0 mi Calm Calm - 0.01 in Rain Light Rain
12:51 PM 75.2 °F - 69.8 °F 83% 29.81 in 10.0 mi Calm Calm - 0.01 in Rain Light Rain
12:53 PM 75.9 °F - 70.0 °F 82% 29.81 in 10.0 mi Calm Calm - 0.01 in Rain Light Rain
1:08 PM 78.8 °F - 71.6 °F 78% 29.80 in 10.0 mi Calm Calm - 0.00 in   Overcast
1:22 PM 77.0 °F - 69.8 °F 78% 29.80 in 10.0 mi Calm Calm - 0.00 in   Overcast
1:42 PM 75.2 °F - 71.6 °F 89% 29.79 in 7.0 mi Calm Calm - 0.00 in Rain Light Rain
1:53 PM 77.0 °F - 72.0 °F 84% 29.78 in 7.0 mi WNW 3.5 mph - 0.00 in Rain Light Rain
2:06 PM 77.0 °F - 71.6 °F 83% 29.78 in 10.0 mi Calm Calm - 0.00 in   Mostly Cloudy
2:30 PM 80.6 °F 84.6 °F 71.6 °F 74% 29.76 in 10.0 mi NW 3.5 mph - 0.00 in   Mostly Cloudy
2:53 PM 81.0 °F 84.4 °F 70.0 °F 69% 29.75 in 10.0 mi WNW 6.9 mph - 0.00 in   Mostly Cloudy
3:18 PM 78.8 °F - 71.6 °F 78% 29.74 in 10.0 mi WNW 4.6 mph - N/A   Mostly Cloudy
3:53 PM 80.1 °F 83.2 °F 70.0 °F 71% 29.73 in 10.0 mi Variable 4.6 mph - N/A   Overcast
4:53 PM 82.0 °F 85.9 °F 70.0 °F 67% 29.72 in 10.0 mi Variable 4.6 mph - N/A   Mostly Cloudy
5:18 PM 78.8 °F - 69.8 °F 74% 29.72 in 10.0 mi Calm Calm - N/A   Scattered Clouds
5:53 PM 78.1 °F - 70.0 °F 76% 29.72 in 10.0 mi North 3.5 mph - N/A   Mostly Cloudy
6:53 PM 75.9 °F - 72.0 °F 87% 29.73 in 10.0 mi Calm Calm - 0.01 in Rain Light Rain
7:41 PM 73.4 °F - 71.6 °F 94% 29.74 in 2.5 mi Calm Calm - 0.06 in Rain Rain
7:48 PM 73.4 °F - 71.6 °F 94% 29.74 in 5.0 mi Calm Calm - 0.07 in Rain Rain
7:53 PM 73.9 °F - 72.0 °F 93% 29.74 in 5.0 mi Calm Calm - 0.08 in Rain Rain
8:04 PM 73.4 °F - 71.6 °F 94% 29.75 in 6.0 mi Variable 5.8 mph - 0.02 in Rain Light Rain
8:19 PM 73.4 °F - 69.8 °F 88% 29.76 in 7.0 mi North 4.6 mph - 0.04 in Rain Light Rain
8:53 PM 72.0 °F - 69.1 °F 91% 29.76 in 10.0 mi NNW 3.5 mph - 0.08 in   Overcast
9:17 PM 71.6 °F - 69.8 °F 94% 29.78 in 10.0 mi NNW 3.5 mph - N/A   Overcast
9:37 PM 71.6 °F - 69.8 °F 94% 29.78 in 10.0 mi Calm Calm - 0.00 in   Overcast
9:53 PM 72.0 °F - 70.0 °F 93% 29.78 in 10.0 mi NNE 4.6 mph - 0.00 in   Overcast
9:56 PM 71.6 °F - 69.8 °F 94% 29.79 in 10.0 mi Variable 4.6 mph - N/A   Overcast
10:19 PM 71.6 °F - 69.8 °F 94% 29.79 in 10.0 mi Calm Calm - N/A   Mostly Cloudy
10:30 PM 71.6 °F - 69.8 °F 94% 29.79 in 10.0 mi Calm Calm - N/A   Mostly Cloudy
10:53 PM 73.9 °F - 69.1 °F 85% 29.79 in 10.0 mi Calm Calm - N/A   Overcast
11:03 PM 71.6 °F - 69.8 °F 94% 29.80 in 10.0 mi Calm Calm - N/A   Overcast
11:17 PM 71.6 °F - 69.8 °F 94% 29.80 in 10.0 mi Calm Calm - N/A   Overcast
11:48 PM 71.6 °F - 69.8 °F 94% 29.80 in 10.0 mi Calm Calm - N/A   Mostly Cloudy
11:53 PM 72.0 °F - 69.1 °F 91% 29.79 in 10.0 mi Calm Calm - N/A   Mostly Cloudy